Simultaneous Nadir Overpasses (SNOs) Predictions

Prediction of SNOs between GOES-16 and METOP-B Satellite Orbit:

Table of predicted SNOs for the next 14.0 days since TLE Epoch: 1/20/2024
Index Date Time (GOES-16) GOES-16 Lat,Lon METOP-B Lat,Lon Distance(km) Time Diff (sec)
1 01/21/2024 14:32:07 -0.01, -75.22 0.18, -76.14 104.19 80
2 01/22/2024 14:08:50 -0.01, -75.22 -0.92, -71.16 463.71 80
3 01/24/2024 02:30:33 0.01, -75.21 -0.14, -75.77 64.32 80
4 01/26/2024 14:26:11 0.00, -75.25 0.01, -75.38 13.87 80
5 01/29/2024 02:24:37 -0.02, -75.26 0.06, -75.01 29.59 80
6 01/30/2024 14:43:31 0.02, -75.31 0.96, -79.59 487.39 80
7 01/31/2024 14:25:33 0.02, -75.33 -0.15, -74.61 82.34 80
8 02/02/2024 02:44:37 -0.02, -75.34 -0.88, -79.22 442.86 80
9 02/03/2024 02:21:19 -0.02, -75.35 0.25, -74.24 126.86 80
